Showing default

LEMUR 2 NEUROSPICY, 63355

Orbit data source: Space-Track

LEMUR 2 NEUROSPICY, 63355 is a payload satellite owned by OroraTech (US) in SSO that was launched on Wed, 26 Mar 2025 UTC via an ELECTRON launch vehicle from the Rocket Lab Launch Complex (RLLC). Payload-class satellites include a variety of spacecraft equipped with specific instruments for various scientific and technological missions. These include communications satellites like Starlink; space stations such as the ISS; scientific satellites like the Hubble; Earth observation satellites from companies like Planet Labs, Umbra, and HawkEye 360; GPS; miniature CubeSats for education and research; and military/defense satellites.

Loading next visibility...
Identifier
63355, 2025-061E
Orbit
SSO
Country
Flag of USUS
Related business
Manufacturer
Spire/Glasgow
Mission
Operational Commercial Imaging
Bus & Motor
CUBESAT 6U, Unknown motor
Mass
~15 kg wet, ~15 kg dry
Launch date (UTC)
2025-03-26 (7 months ago)
Launch vehicle
ELECTRON
Launch site
Rocket Lab Launch Complex (RLLC)
Object type
Payload
Rocket body
Debris
Shape & HBR
Box + 2 Pan, 14.5 m
Radar Cross Section
0.065 m², Medium (>0.1 m² and < 1m²)

Expand to show TLE details & history
Last TLE update: 11 hours ago

TLE from 11 hours ago
0 LEMUR 2 NEUROSPICY
1 63355U 25061E   25309.85979012  .00005343  00000-0  31536-3 0  9992
2 63355  97.5383 282.6985 0016311 315.1361  44.8550 15.11844181 33849
Epoch: 2025-11-05T20:38Z
TLE epoch observation values (Epoch: 2025-11-05T20:38:05.866Z)
Latitude
-0.00001°
Longitude
-72.15235°
Altitude
525.67 km
Speed
7.605 km/s
True Right ascension
18h 50m 47s
True Declination
0° 00' 00"
Sunlit
Object was in daylight at epoch
Visualization orbit readout
Latitude
Unknown
Longitude
Unknown
Altitude
Unknown
Speed
Unknown
Apparent Right ascension
Unknown
Apparent Declination
Unknown
Sunlit
N/A
Visualization observer readout
Local Sidereal Time
04:08:12
Azimuth
Unknown
Elevation
Unknown
Doppler factor
Unknown
Orbital elements
Apogee altitude
538.822 km
Perigee altitude
516.295 km
Semi-major axis
6,905.695 km
Eccentricity
0.00163
Inclination
97.5383°
RAAN
282.6985°
Arg. of periapsis
315.1361°
True anomaly
44.98702°
Mean anomaly
44.855°
Eccentric anomaly
44.92099°
Mean motion
3.78209 °/min
Orbital period
95.19 mins
BSTAR
0.00031536
Loading maneuver chart data...
Computing Atmospheric mass density...
Loading historical data...
Loading historical data...
Loading historical data...
Loading historical data...
Loading historical data...
Loading historical data...
Loading historical data...

Documentation

Showing up to 5 results
|